Air Resources Laboratory banner image
Air Resources Laboratory web site National Oceanic and Atmospheric Administration (NOAA)

vt roundup


Office: BTV

ASUS41 KBTV 140210
RWRBTV
VERMONT REGIONAL WEATHER ROUNDUP
NATIONAL WEATHER SERVICE BURLINGTON VT
900 PM EST WED DEC 13 2017

NOTE: "FAIR" INDICATES FEW OR NO CLOUDS BELOW 12,000 FEET WITH NO
SIGNIFICANT WEATHER AND/OR OBSTRUCTIONS TO VISIBILITY.

* THESE REPORTS ARE NOT UNDER NWS QUALITY CONTROL AND/OR DO NOT
  REPORT WEATHER SUCH AS PRECIPITATION AND FOG.

VTZ001>019-140300-
_____VERMONT_____


CITY           SKY/WX    TMP DP  RH WIND       PRES   REMARKS
BURLINGTON     PTCLDY    16   3  56 W14       29.50R WCI   2
MONTPELIER     CLOUDY    10   5  80 W8        29.43R WCI  -2
MORRISVILLE    CLOUDY    10   3  73 W8G17     29.43S WCI  -2
ST. JOHNSBURY*   N/A      9   7  92 MISG      29.40S
LYNDONVILLE*   CLOUDY     9   3  78 SW8       29.38R HAZE    WCI  -4
MIDDLEBURY*    FAIR       8   4  81 CALM      29.51S
RUTLAND*       CLEAR     13   6  74 NW10      29.48R WCI   0
SPRINGFIELD    CLOUDY    17   6  62 SW7       29.49R WCI   8
HIGHGATE*      FAIR      10  -1  61 W10G17    29.51R WCI  -4
NEWPORT*       CLOUDY     8   1  74 W13G22    29.39S HAZE    WCI  -8
BENNINGTON     PTCLDY    18   7  62 VRB3      29.51F
SUTTON*          N/A      7 N/A N/A MISG        N/A

_____LAKE CHAMPLAIN_____


CITY           SKY/WX    TMP DP  RH WIND       PRES   REMARKS
BURTON ISLAND*   N/A     16   7  67 N14G22      N/A  WCI   1
COLCHESTER RF*   N/A     16   7  67 W17G24      N/A  WCI   0
DIAMOND ISL*     N/A     18   5  57 SW10        N/A  WCI   6

$$

NYZ007-026>031-035-052-083-087-140300-
_____NORTHERN NEW YORK_____


CITY           SKY/WX    TMP DP  RH WIND       PRES   REMARKS
PLATTSBURGH    CLEAR     12  -2  53 VRB6      29.50R WCI   3
SARANAC LAKE   MOCLDY     3   0  87 SW6       29.43S WCI  -8
MASSENA        CLEAR      8  -2  63 W13       29.60R WCI  -8
OGDENSBURG*    FAIR       7  -2  68 NW5       29.59S WCI  -2
POTSDAM*       CLOUDY     3  -2  78 SW5       29.57F WCI  -6
WATERTOWN      CLOUDY    10   7  87 NW5       29.61S WCI   2
FT DRUM        CLEAR      9   2  75 W5        29.56S WCI   0
ALBANY         MOCLDY    19   6  57 W9        29.59S WCI   8
GLENS FALLS    CLEAR     15   5  64 W7        29.54F WCI   5

$$
NHZ002-005-011-140300-
_____NEW HAMPSHIRE_____


CITY           SKY/WX    TMP DP  RH WIND       PRES   REMARKS
LEBANON        MOCLDY    15   4  61 W3        29.46R
KEENE          FLURRIES  18  11  74 SW3       29.51R
MT WASHINGTON  BLWGSNOW -15 -15 100 W77G85      N/A  VSB 1/16WCI -58
PLYMOUTH       FLURRIES  15   8  74 W8        29.42R WCI   3
WHITEFIELD     CLOUDY     9   4  80 SW7       29.37S WCI  -2

$$

_____REGIONAL QUEBEC LOCATIONS_____


CITY           SKY/WX    TMP DP  RH WIND       PRES   REMARKS
MONTREAL       PTCLDY     7  -2  66 W16G22    29.49R WCI -11
QUEBEC CITY    PTCLDY     9   0  66 W20G26    29.23R WCI -11
SHERBROOKE     FLURRIES   7   1  78 W15G29    29.33R WCI -11

_____REGIONAL ONTARIO LOCATIONS_____


CITY           SKY/WX    TMP DP  RH WIND       PRES   REMARKS
OTTAWA         CLEAR      5  -4  66 W13       29.57R WCI -12

______KEY______
VSB  - VISIBILITY IN MILES
WCI  - WIND CHILL INDEX
HX   - HEAT INDEX
$$
NNNN




Office: BOX ASUS41 KBOX 140210 RWRBOX REGIONAL WEATHER ROUNDUP NATIONAL WEATHER SERVICE TAUNTON MA 900 PM EST WED DEC 13 2017 NOTE: "FAIR" INDICATES FEW OR NO CLOUDS BELOW 12,000 FEET WITH NO SIGNIFICANT WEATHER AND/OR OBSTRUCTIONS TO VISIBILITY. MAZALL-140300- EASTERN MASSACHUSETTS CITY SKY/WX TMP DP RH WIND PRES REMARKS BOSTON CLEAR 23 9 55 W21G32 29.52R WCI 8 BEVERLY CLEAR 22 10 60 W15G26 29.48R WCI 9 LAWRENCE CLEAR 22 10 60 SW14G28 29.50R WCI 9 BEDFORD PTCLDY 21 8 57 W9G20 29.50R WCI 11 BLUE HILL N/A 19 7 59 W22G37 29.48R WCI 2 NORWOOD CLEAR 23 9 55 W14G24 29.54R WCI 11 MARSHFIELD CLEAR 23 9 54 W15G28 29.52R WCI 10 PLYMOUTH CLEAR 24 7 48 W17G24 29.54R WCI 11 TAUNTON CLEAR 24 7 48 W17G26 29.55R WCI 11 NEW BEDFORD CLEAR 24 8 50 W23G32 29.55R WCI 9 $$ MAZALL-140300- CAPE COD AND THE ISLANDS CITY SKY/WX TMP DP RH WIND PRES REMARKS FALMOUTH CLEAR 25 7 46 W29G37 29.55R WCI 8 HYANNIS CLEAR 26 10 50 W16G25 29.52R WCI 14 CHATHAM CLEAR 25 9 50 W10G23 29.54R WCI 15 PROVINCETOWN PTCLDY 25 14 63 W30G37 29.51 WCI 8 NANTUCKET CLEAR 29 16 58 W28G38 29.56R WCI 14 MARTHAS VNYRD CLEAR N/A N/A N/A W23G35 29.57R $$ MAZALL-140300- CENTRAL AND WESTERN MASSACHUSETTS CITY SKY/WX TMP DP RH WIND PRES REMARKS WORCESTER CLEAR 16 5 62 W18G32 29.46R WCI 0 FITCHBURG CLEAR 22 11 62 W20G33 29.49R WCI 7 ORANGE NOT AVBL SPRINGFIELD PTCLDY 19 6 57 W14 29.56R WCI 6 WESTFIELD CLEAR 19 6 57 W12 29.58S WCI 7 NORTH ADAMS CLOUDY 18 7 62 W12G20 29.52F WCI 5 PITTSFIELD CLOUDY 16 5 62 W13 29.49F WCI 2 $$ RIZALL-140300- RHODE ISLAND CITY SKY/WX TMP DP RH WIND PRES REMARKS PROVIDENCE PTCLDY 24 7 48 W15G22 29.58R WCI 11 NEWPORT CLEAR 24 7 48 W9G21 29.57R WCI 14 BLOCK ISLAND PTCLDY 30 15 53 W25G35 29.60R WCI 16 SMITHFIELD CLEAR 20 8 60 W9G21 29.54R WCI 9 WESTERLY CLEAR 26 5 40 W8 29.61R WCI 18 $$ CTZALL-140300- CONNECTICUT CITY SKY/WX TMP DP RH WIND PRES REMARKS BRADLEY INTL PTCLDY 18 6 59 W8 29.60S WCI 8 HARTFORD CLEAR 24 5 44 W8 29.62R WCI 15 BRIDGEPORT PTCLDY 27 6 41 W10 29.64F WCI 17 DANBURY CLOUDY 24 4 42 W9 29.62S WCI 14 GROTON CLEAR 26 4 38 W18G26 29.61R WCI 13 NEW HAVEN CLEAR 27 7 42 W13 29.63F WCI 16 CHESTER FAIR 23 1 39 W8G15 29.59R WCI 14 MERIDEN CLEAR 24 3 40 W14G22 29.62R WCI 12 WILLIMANTIC CLEAR 23 6 48 W8 29.60R WCI 14 OXFORD CLEAR 21 5 50 W10 29.59S WCI 10 $$ MEZ002-015-021-024-NHZ003-005-008-011-012-014-VTZ005-008-140300- NORTHERN NEW ENGLAND CITY SKY/WX TMP DP RH WIND PRES REMARKS PORTLAND ME CLEAR 17 7 64 W16 29.35R WCI 2 BANGOR ME PTCLDY 12 5 73 W7 29.25R WCI 1 CONCORD NH CLEAR 19 7 59 W9G24 29.44R WCI 8 MANCHESTER NH CLEAR 20 8 60 W9 29.46R WCI 9 NASHUA NH CLEAR 20 11 68 W14G20 29.48R WCI 7 PORTSMOUTH NH CLEAR 20 8 61 W18G33 29.41R WCI 4 JAFFREY NH FLURRIES 17 10 74 W12G24 29.44R WCI 4 KEENE NH FLURRIES 18 11 74 SW3 29.51R BURLINGTON VT PTCLDY 16 3 56 W14 29.50R WCI 2 MT. WASHINGTON BLWGSNOW -15 -15 100 W77G85 N/A VSB 1/16WCI -58 $$ NYZ052-076-140300- EASTERN NEW YORK CITY SKY/WX TMP DP RH WIND PRES REMARKS ALBANY MOCLDY 19 6 57 W9 29.59S WCI 8 NEW YORK CITY CLOUDY 28 7 41 W17G24 29.66F WCI 16 $$ ANZALL-140300- MARINE OBSERVATIONS STATION/POSITION TIME TEMP WIND PRES VSBY WAVE AIR SEA DIR/SP/G HT/PER (UTC) (F) (DEG/KT/KT) (MB) (MI) (FT/S) BOSTON BUOY 0150 27 48 260/ 27/ 35 997.5R 5/ 5 BUZZARDS BAY 0100 28 280/ 34/ 37 1000.6R NANTUCKET SOUND 0150 30 44 270/ 29/ 35 999.6R 5/ 5 MASS BAY-STELLWA 0104 27 47 280/ 29/ 37 996.1R 6/ 5 ISLE OF SHOALS 0100 22 260/ 30/ 36 994.6R S OF BLOCK IS 0143 54 N/A 11/ 9 $$ ......................KEY......................... SKY/WX - SKY CONDITION/PRESENT WEATHER TMP - TEMPERATURE IN FAHRENHEIT DWPT - DEWPOINT IN FAHRENHEIT RH - RELATIVE HUMIDITY IN PERCENT WIND - DIRECTION AND SPEED IN MPH PRES - MEAN SEA LEVEL PRESSURE IN INCHES OF HG WCI - WIND CHILL INDEX VSB - VISIBILITY IN MILES HX - HEAT INDEX TC - TEMPERATURE IN CELSIUS VRB - VARIABLE WIND DIRECTION N/A - NOT AVAILABLE
Office: GYX ASUS41 KGYX 140205 RWRGYX WEATHER ROUNDUP FOR MAINE AND NEW HAMPSHIRE NATIONAL WEATHER SERVICE GRAY ME 900 PM EST WED DEC 13 2017 MEZ002-005-006-010-012-015-018-020-021-024-026-027-029-140300- MAINE CITY SKY/WX TMP DP RH WIND PRES REMARKS PORTLAND CLEAR 17 7 64 W16 29.35R WCI 2 SANFORD CLEAR 15 7 70 W18G29 29.39R WCI -2 BAR HARBOR PTCLDY 14 5 67 W14G25 29.27R WCI -1 WISCASSET CLEAR 15 5 64 VRB3 29.34R ROCKLAND CLEAR 15 5 64 W18G25 29.30R WCI -2 FRYEBURG PTCLDY 14 1 56 NW9G20 29.34R LEWISTONAUBURN CLEAR 11 2 67 NW5 29.33R AUGUSTA CLEAR 12 0 58 W9G17 29.30R WATERVILLE CLEAR 11 2 67 W8 29.24R BANGOR PTCLDY 12 5 73 W7 29.25R GREENVILLE N/A 6 -1 73 NW13G31 29.08R WCI -10 MILLINOCKET CLOUDY 11 2 67 W13G24 29.13R WCI -4 HOULTON CLOUDY 13 5 70 W18G33 29.04R WCI -4 PRESQUE ISLE LGT SNOW 12 6 77 W14G22 29.00R WCI -3 FRENCHVILLE LGT SNOW 11 8 88 W13 28.90R FOG WCI -4 CARIBOU LGT SNOW 13 7 77 W14 28.96R WCI -2 $$ NHZ002-005-008-009-011-012-014-140300- NEW HAMPSHIRE CITY SKY/WX TMP DP RH WIND PRES REMARKS PORTSMOUTH CLEAR 20 8 61 W18G33 29.41R WCI 4 ROCHESTER CLEAR 17 7 64 W8G24 29.39R NASHUA CLEAR 20 11 68 W14G20 29.48R WCI 7 MANCHESTER CLEAR 20 8 60 W9 29.46R CONCORD CLEAR 19 7 59 W9G24 29.44R LACONIA PTCLDY 15 6 67 W18G30 29.41R WCI -2 PLYMOUTH FLURRIES 15 8 74 W8 29.42R BERLIN CLOUDY 9 0 67 VRB7 29.30F WHITEFIELD CLOUDY 9 4 80 SW7 29.37S JAFFREY FLURRIES 17 10 74 W12G24 29.44R WCI 4 KEENE FLURRIES 18 11 74 SW3 29.51R LEBANON MOCLDY 15 4 61 W3 29.46R MT WASHINGTON BLWGSNOW -15 -15 100 W77G85 N/A VSB 1/16WCI -58 $$ VTZ005-007-008-140300- VERMONT CITY SKY/WX TMP DP RH WIND PRES REMARKS ST JOHNSBURY N/A 9 7 92 MISG 29.40S MONTPELIER CLOUDY 10 5 80 W8 29.43R BURLINGTON PTCLDY 16 3 56 W14 29.50R WCI 2 $$ MAZ007-012-024-CTZ003-RIZ002-NYZ038-NYZ072-140300- SOUTHERN NEW ENGLAND AND NY CITY SKY/WX TMP DP RH WIND PRES REMARKS BOSTON CLEAR 23 9 55 W21G32 29.52R WCI 8 WORCESTER CLEAR 16 5 62 W18G32 29.46R WCI 0 NANTUCKET CLEAR 29 16 58 W28G38 29.56R WCI 14 PROVIDENCE PTCLDY 24 7 48 W15G22 29.58R WCI 11 HARTFORD PTCLDY 18 6 59 W8 29.60S ALBANY MOCLDY 19 6 57 W9 29.59S NEW YORK CITY CLOUDY 28 7 41 W17G24 29.66F WCI 16 $$ ANZ081-ANZ082-ANZ150-NHZ014-MEZ023>029-140300- COASTAL MARINE OBSERVATIONS STATION/POSITION TIME TEMP WIND PRES WAVE AIR SEA DIR/SP/G HT/PER (UTC) (F) (DEG/KT/KT) (MB) (FT/S) MOUNT DESERT ROC 0200 24 260/ 28/ 35 990.5R MATINICUS ROCK 0100 24 270/ 30/ 35 990.3R ISLE OF SHOALS 0100 22 260/ 30/ 36 994.6R JEFFREYS LEDGE 0136 48 N/A 9/ 6 GEORGES BANK BUO 0050 38 50 995.3 22/11 $$ .............KEY.............. WCI - WIND CHILL TC - TEMPERATURE IN CELSIUS VSB - VISIBILITY IN MILES HX - HEAT INDEX FAIR- INDICATES FEW OR NO CLOUDS BELOW 12,000 FT, WITH NO SIGNIFICANT WEATHER AND/OR OBSTRUCTIONS TO VISIBILITY. ASUS41 KGYX 140210 RWRGYX WEATHER ROUNDUP FOR MAINE AND NEW HAMPSHIRE NATIONAL WEATHER SERVICE GRAY ME 900 PM EST WED DEC 13 2017 MEZ002-005-006-010-012-015-018-020-021-024-026-027-029-140300- MAINE CITY SKY/WX TMP DP RH WIND PRES REMARKS PORTLAND CLEAR 17 7 64 W16 29.35R WCI 2 SANFORD CLEAR 15 7 70 W18G29 29.39R WCI -2 BAR HARBOR PTCLDY 14 5 67 W14G25 29.27R WCI -1 WISCASSET CLEAR 15 5 64 VRB3 29.34R ROCKLAND CLEAR 15 5 64 W18G25 29.30R WCI -2 FRYEBURG PTCLDY 14 1 56 NW9G20 29.34R LEWISTONAUBURN CLEAR 11 2 67 NW5 29.33R AUGUSTA CLEAR 12 0 58 W9G17 29.30R WATERVILLE CLEAR 11 2 67 W8 29.24R BANGOR PTCLDY 12 5 73 W7 29.25R GREENVILLE N/A 6 -1 73 NW13G31 29.08R WCI -10 MILLINOCKET CLOUDY 11 2 67 W13G24 29.13R WCI -4 HOULTON CLOUDY 13 5 70 W18G33 29.04R WCI -4 PRESQUE ISLE LGT SNOW 12 6 77 W14G22 29.00R WCI -3 FRENCHVILLE LGT SNOW 11 8 88 W13 28.90R FOG WCI -4 CARIBOU LGT SNOW 13 7 77 SW18G24 28.96R WCI -4 $$ NHZ002-005-008-009-011-012-014-140300- NEW HAMPSHIRE CITY SKY/WX TMP DP RH WIND PRES REMARKS PORTSMOUTH CLEAR 20 8 61 W18G33 29.41R WCI 4 ROCHESTER CLEAR 17 7 64 W8G24 29.39R NASHUA CLEAR 20 11 68 W14G20 29.48R WCI 7 MANCHESTER CLEAR 20 8 60 W9 29.46R CONCORD CLEAR 19 7 59 W9G24 29.44R LACONIA PTCLDY 15 6 67 W18G30 29.41R WCI -2 PLYMOUTH FLURRIES 15 8 74 W8 29.42R BERLIN CLOUDY 9 0 67 VRB7 29.30F WHITEFIELD CLOUDY 9 4 80 SW7 29.37S JAFFREY FLURRIES 17 10 74 W12G24 29.44R WCI 4 KEENE FLURRIES 18 11 74 SW3 29.51R LEBANON MOCLDY 15 4 61 W3 29.46R MT WASHINGTON BLWGSNOW -15 -15 100 W77G85 N/A VSB 1/16WCI -58 $$ VTZ005-007-008-140300- VERMONT CITY SKY/WX TMP DP RH WIND PRES REMARKS ST JOHNSBURY N/A 9 7 92 MISG 29.40S MONTPELIER CLOUDY 10 5 80 W8 29.43R BURLINGTON PTCLDY 16 3 56 W14 29.50R WCI 2 $$ MAZ007-012-024-CTZ003-RIZ002-NYZ038-NYZ072-140300- SOUTHERN NEW ENGLAND AND NY CITY SKY/WX TMP DP RH WIND PRES REMARKS BOSTON CLEAR 23 9 55 W21G32 29.52R WCI 8 WORCESTER CLEAR 16 5 62 W18G32 29.46R WCI 0 NANTUCKET CLEAR 29 16 58 W28G38 29.56R WCI 14 PROVIDENCE PTCLDY 24 7 48 W15G22 29.58R WCI 11 HARTFORD PTCLDY 18 6 59 W8 29.60S ALBANY MOCLDY 19 6 57 W9 29.59S NEW YORK CITY CLOUDY 28 7 41 W17G24 29.66F WCI 16 $$ ANZ081-ANZ082-ANZ150-NHZ014-MEZ023>029-140300- COASTAL MARINE OBSERVATIONS STATION/POSITION TIME TEMP WIND PRES WAVE AIR SEA DIR/SP/G HT/PER (UTC) (F) (DEG/KT/KT) (MB) (FT/S) MOUNT DESERT ROC 0200 24 260/ 28/ 35 990.5R MATINICUS ROCK 0100 24 270/ 30/ 35 990.3R ISLE OF SHOALS 0100 22 260/ 30/ 36 994.6R JEFFREYS LEDGE 0136 48 N/A 9/ 6 GEORGES BANK BUO 0050 38 50 995.3 22/11 $$ .............KEY.............. WCI - WIND CHILL TC - TEMPERATURE IN CELSIUS VSB - VISIBILITY IN MILES HX - HEAT INDEX FAIR- INDICATES FEW OR NO CLOUDS BELOW 12,000 FT, WITH NO SIGNIFICANT WEATHER AND/OR OBSTRUCTIONS TO VISIBILITY.